This demonstration page uses our WeatherBlox Daily Observations layout. Learn more.

Left ArrowRight Arrow

39.95238, -75.16362

Hourly Observations for April 26, 2018

Temp ( °F °C ) Dew Point ( °F °C ) Humidity (%) Winds ( mph kmh ) Pressure ( in mb ) Visibility ( mi km ) Precip ( " mm )
12:54 am 00:54 Mostly Cloudy 61 16.1 56 13.3 84 84 WNW 8 13 29.66 1005 10 16 0.00 0.00
1:54 am 01:54 Cloudy 61 16.1 53 11.7 75 75 WNW 10 17 29.65 1004 10 16 0.00 0.00
2:54 am 02:54 Mostly Cloudy 60 15.6 51 10.6 72 72 WNW 12 19 29.65 1004 10 16 0.00 0.00
3:54 am 03:54 Mostly Cloudy 59 15 49 9.4 69 69 WNW 13 20 29.67 1005 10 16 0.00 0.00
4:54 am 04:54 Mostly Cloudy 56 13.3 46 7.8 70 70 W 17 28 29.70 1006 10 16 0.00 0.00
5:54 am 05:54 Mostly Clear 52 11.1 40 4.4 64 64 W 15 24 29.74 1007 10 16 0.00 0.00
6:54 am 06:54 Partly Cloudy 51 10.6 38 3.3 61 61 WNW 12 19 29.77 1008 10 16 0.00 0.00
7:54 am 07:54 Partly Cloudy 52 11.1 38 3.3 59 59 NW 15 24 29.78 1008 10 16 0.00 0.00
8:54 am 08:54 Partly Cloudy 53 11.7 38 3.3 57 57 WNW 17 28 29.79 1009 10 16 0.00 0.00
9:54 am 09:54 Partly Cloudy 56 13.3 38 3.3 51 51 WNW 12 19 29.81 1009 10 16 0.00 0.00
10:54 am 10:54 Partly Cloudy 57 13.9 39 3.9 51 51 W 9 15 29.81 1010 10 16 0.00 0.00
11:54 am 11:54 Partly Cloudy 59 15 39 3.9 48 48 WNW 10 17 29.81 1010 10 16 0.00 0.00
12:54 pm 12:54 Partly Cloudy 62 16.7 41 5 46 46 W 16 26 29.81 1010 10 16 0.00 0.00
1:54 pm 13:54 Partly Cloudy 64 17.8 42 5.6 45 45 W 13 20 29.82 1010 10 16 0.00 0.00
2:42 pm 14:42 Partly Cloudy 65 18.3 41 5 42 42 WNW 14 22 29.80 1009 10 16 0.00 0.00
2:54 pm 14:54 Partly Cloudy 65 18.3 40 4.4 40 40 NW 16 26 29.82 1010 10 16 0.00 0.00
3:54 pm 15:54 Mostly Sunny 66 18.9 41 5 40 40 W 14 22 29.81 1010 10 16 0.00 0.00
4:54 pm 16:54 Partly Cloudy 66 18.9 41 5 40 40 VRB 7 11 29.81 1010 9 14 0.00 0.00
5:50 pm 17:50 Partly Cloudy 66 19 39 4 37 37 WSW 15 24 29.83 1010 10 16 0.00 0.00
5:54 pm 17:54 Partly Cloudy 66 18.9 41 5 40 40 W 14 22 29.83 1010 10 16 0.00 0.00
6:54 pm 18:54 Partly Cloudy 66 18.9 40 4.4 39 39 W 15 24 29.84 1011 10 16 0.00 0.00
7:54 pm 19:54 Partly Cloudy 65 18.3 40 4.4 40 40 WNW 9 15 29.85 1011 10 16 0.00 0.00
8:54 pm 20:54 Mostly Clear 63 17.2 40 4.4 43 43 NW 5 7 29.87 1012 10 16 0.00 0.00
9:54 pm 21:54 Partly Cloudy 63 17.2 40 4.4 43 43 WNW 5 7 29.88 1012 10 16 0.00 0.00
10:54 pm 22:54 Mostly Cloudy 62 16.7 40 4.4 44 44 Calm 29.88 1012 10 16 0.00 0.00
11:54 pm 23:54 Cloudy 57 13.9 45 7.2 64 64 Calm 29.88 1012 10 16 0.00 0.00

Powered by Vaisala Xweather